COSMOS 2068

Satellite information

Favourite Embed

Satellite Type and Status

PAYLOADIN ORBIT

Key statistics

Satellite COSMOS 2068 at a glance.

Uptime

13036

Days in orbit

Revolutions

≈ 12.6

Per day

Orbit

LEO

Low Earth Orbit

Inclination

74.0

Latest

Satellite identification and parameters

Extended collection of information and parameters for COSMOS 2068.

Object identification

Identified? True

Debris? False

Object name: COSMOS 2068

International designator: 1990-029E

Object number (NORAD): 20553

Object ID (CCSDS): 20553

Country: COMMONWEALTH OF INDEPENDENT STATES (CIS)

Current information (Y/N): Y

RCS size: MEDIUM

Orbital parameters

Period: 114.625 minutes

Inclination: 73.9825 deg

SMA: 7816.513 km

Apoapsis: 1462.232 km

Periapsis: 1414.525 km

RAAN: 318.0906 deg

Eccentricy: 0.00305165

Argument of periapsis: 140.6114 deg

Mean anomaly: 285.3154 deg

Mean motion: 12.5627045 rev/day

Mean motion (dot): 0.00000007 rev/day2

B* drag term: 0.00014285549 1/REarth

Two-line elements (TLE)

Creation date: Dec. 12, 2025, 10:14 a.m.

Reference frame: TEME

Reference center: EARTH

Epoch: Dec. 12, 2025, 6:46 a.m. UTC

TLE line 0: 0 COSMOS 2068

TLE line 1: 1 20553U 90029E 25346.28221274 .00000007 00000-0 14286-3 0 9994

TLE line 2: 2 20553 73.9825 318.0906 0030517 140.6114 285.3154 12.56270450636501

Live tracking on map

Real-time ground track for satellite COSMOS 2068.

In-orbit conjunctions

There are no conjunctions computed for COSMOS 2068, at the moment. Check back to stay up to date, as we update our databases every day.

Go to all conjunctions

Associated space launch

Military communications satellites

COSMOS 2068 was lifted into orbit during the mission ‘Kosmos-3M | Strela-1M 345-352’, on board a Kosmos-3M space rocket.

The launch took place on April 6, 1990, 3:13 a.m. from 133/3 (133L).

For more information about the launch, click the button.

Launch to space Kosmos-3M | Strela-1M 345-352
Kosmos-3M | Strela-1M 345-352

Agency: N/A

Status: Launch Successful

Launch date: April 6, 1990, 3:13 a.m. UTC

Rocket: Kosmos-3M

Launch pad: 133/3 (133L)

Location: Plesetsk Cosmodrome, Russian Federation

...

Latest news about this satellite

There are no fresh news available about this satellite. Check back as we update our databases every day.


Newsletter sign-up

Weekly statistics, charts and insights to help you stay on top of the space industry.